Flag for Germany Weather past 2 weeks in Georgsmarienhütte, Lower Saxony, Germany

Now
70 °F

Clear.


Feels Like: 70 °F
Forecast: 60 / 77 °F
Wind: 8 mph from Northeast

Location: Muenster / Osnabrueck

Current Time: Jul 23, 2014 at 2:30:04 AM

Latest Report: Jul 23, 2014 at 1:50 AM


Visibility: 10 mi

Pressure: 30.09 "Hg

Humidity: 73%

Dew point: 61 °F

Location of GeorgsmarienhütteLocation

Historic Weather in Georgsmarienhütte — Graph

°F

Georgsmarienhütte temperature yesterday

Maximum temperature yesterday: 81 °F (at 4:20 PM)
Minimum temperature yesterday: 63 °F (at 4:50 AM)
Average temperature yesterday: 70 °F

Past Weeks' High & Low Weather Summary

 TemperatureHumidityPressure
High93 °F (Jul 19, 2:20 PM)100% (Jul 8, 9:20 AM)30.18 "Hg (Jul 8, 9:20 AM)
Low52 °F (Jul 15, 2:50 AM)19% (Jul 19, 3:20 PM)29.62 "Hg (Jul 9, 4:20 PM)
Average69 °F74%29.92 "Hg
* Reported Jul 7 6:20 PM — Jul 22 6:50 PM, Georgsmarienhütte, Weather by CustomWeather, © 2014

Note: Actual official high and low records may vary slightly from our data, if they occured in-between our weather recording intervals... More about our weather records

Advertising

Georgsmarienhütte weather history for previous 24 hours

 ConditionsComfort  
Time TempWeatherWind HumidityBarometerVisibility
6:50 PM
Jul 22
81 °FPassing clouds.7 mph51%30.07 "HgN/A
6:20 PM81 °FPassing clouds.8 mph51%30.04 "HgN/A
5:50 PM81 °FPassing clouds.9 mph51%30.04 "HgN/A
5:20 PM81 °FScattered clouds.9 mph51%30.07 "HgN/A
4:50 PM81 °FScattered clouds.13 mph54%30.07 "HgN/A
4:20 PM81 °FScattered clouds.10 mph51%30.07 "HgN/A
3:50 PM79 °FScattered clouds.10 mph54%30.07 "HgN/A
3:20 PM79 °FScattered clouds.10 mph58%30.07 "HgN/A
2:50 PM77 °FPartly sunny.12 mph61%30.07 "HgN/A
2:20 PM75 °FPartly sunny.10 mph65%30.07 "HgN/A
1:50 PM73 °FPartly sunny.9 mph65%30.07 "HgN/A
1:20 PM73 °FPartly sunny.9 mph65%30.07 "HgN/A
12:50 PM73 °FBroken clouds.9 mph69%30.07 "HgN/A
12:20 PM70 °FBroken clouds.10 mph78%30.07 "HgN/A
11:50 AM72 °FBroken clouds.10 mph73%30.07 "HgN/A
11:20 AM70 °FScattered clouds.10 mph78%30.07 "HgN/A
10:50 AM68 °FPartly sunny.9 mph78%30.07 "HgN/A
10:20 AM68 °FPartly sunny.10 mph83%30.04 "HgN/A
9:50 AM66 °FPartly sunny.8 mph83%30.04 "HgN/A
9:20 AM66 °FScattered clouds.9 mph83%30.04 "HgN/A
8:50 AM66 °FPartly sunny.9 mph83%30.04 "HgN/A
8:20 AM64 °FPartly sunny.7 mph88%30.04 "HgN/A
7:50 AM63 °FScattered clouds.8 mph94%30.01 "HgN/A
7:20 AM63 °FSunny.7 mph94%30.01 "Hg10 mi
6:50 AM63 °FSunny.6 mph88%30.01 "Hg10 mi
6:20 AM63 °FClear.6 mph88%30.01 "Hg10 mi
5:50 AM63 °FClear.7 mph88%30.01 "Hg10 mi
5:20 AM63 °FClear.6 mph94%30.01 "Hg10 mi
4:50 AM63 °FClear.6 mph94%29.98 "Hg10 mi
4:20 AM64 °FClear.6 mph88%29.98 "Hg10 mi
3:50 AM64 °FClear.5 mph88%29.98 "Hg10 mi
3:20 AM66 °FClear.5 mph83%29.98 "Hg10 mi
2:50 AM68 °FClear.6 mph83%29.98 "Hg10 mi
2:20 AM68 °FClear.7 mph88%29.98 "Hg10 mi
Weather by CustomWeather, © 2014

See weather overviewHow to use our weather pages